Regional Weather Roundup
Issued by NWS

Home | Current Version | Previous Version | Graphics & Text | Print | Product List | Glossary On
Versions: 1 2 3 4 5 6 7 8 9 10 11 12 13 14 15 16 17 18 19 20 21 22 23 24 25 26 27 28 29 30 31 32 33 34 35 36 37 38 39 40 41 42 43 44 45 46 47 48 49 50
000
ASUS43 KFSD 281002
RWRSD

WEATHER ROUNDUP FOR SOUTH DAKOTA
NATIONAL WEATHER SERVICE SIOUX FALLS SD
500 AM CDT THU AUG 28 2014

NOTE: "FAIR" INDICATES FEW OR NO CLOUDS BELOW 12,000 FEET WITH NO
SIGNIFICANT WEATHER AND/OR OBSTRUCTIONS TO VISIBILITY.


SDZ001>005-009-010-012>017-281100-
NORTHWEST AND NORTH CENTRAL SOUTH DAKOTA

CITY           SKY/WX    TMP DP  RH WIND       PRES   REMARKS
BUFFALO          N/A     55  54  96 SE6       29.93F
FAITH            N/A     63  62  97 CALM      29.97F
MOBRIDGE       CLOUDY    66  65  96 E6        29.93F
$$

SDZ012>016-024>037-041>051-057-063-072>074-281100-
SOUTHWEST AND SOUTH CENTRAL SOUTH DAKOTA

CITY           SKY/WX    TMP DP  RH WIND       PRES   REMARKS
RAPID CTY ARPT CLOUDY    62  60  93 CALM      30.02R
PIERRE         HVY RAIN  66  66 100 E7        29.93F FOG
CUSTER         CLOUDY    55  52  89 NW3       30.11S
ELLSWORTH AFB  CLOUDY    62  61  97 NW5       30.01S
PHILIP         LGT RAIN  65  64  97 NE6       29.96R
PINE RIDGE     CLOUDY    63  62  97 NW6       29.99S
WINNER         CLOUDY    68  67  96 E8        29.93F
$$

SDZ004>011-016>023-039-040-281100-
NORTHEAST SOUTH DAKOTA

CITY           SKY/WX    TMP DP  RH WIND       PRES   REMARKS
ABERDEEN       CLOUDY    64  64 100 E5        29.98F FOG
WATERTOWN      CLOUDY    65  62  90 SE10      30.00F
SISSETON         N/A     62  61  96 S6        30.00F
$$

SDZ017-020-022-023-036>040-048>070-281100-
SOUTHEAST SOUTH DAKOTA

CITY           SKY/WX    TMP DP  RH WIND       PRES   REMARKS
SIOUX FALLS    CLOUDY    67  65  93 SE10      29.99F
HURON          LGT RAIN  67  66  97 SE7       29.95F
CHAMBERLAIN    CLOUDY    66  66  98 E8        29.94F
MITCHELL       CLOUDY    68  67  96 SE8       29.96F
YANKTON        CLOUDY    68  66  94 E8        29.96F
$$

ABBREVIATIONS USED IN REMARKS
   TC - TEMPERATURE IN CELSIUS
  WCI - WIND CHILL INDEX
   HX - HEAT INDEX
  VSB - VISIBILITY



USA.gov is the U.S. government's official web portal to all federal, state and local government web resources and services.